[[{"header":{"parameterUnit":"m.s-1","parameterCategory":1,"la1":30.2991,"la2":30.254,"lo1":-89.0895,"lo2":-89.0444,"dy":0.0017,"dx":0.0017,"nx":28,"ny":28,"refTime":"2025-01-07T03:00:00:Z","depth":0,"parameterNumber":2,"parameterNumberName":"U-component_of_WINDS"},"data":[0,0,0,0,0,0,0,0,0,0,0,0,0,0,0,0,0,0,0,0,0,0,0,0,0,0,0,0,0,0,0,0,0,0,0,0,0,0,0,0,0,0,0,0,0,0,0,0,0,0,0,0,0,0,0,0,0,0,-0.8882,-0.8883,0,-0.8953,-0.8954,-0.8955,-0.8905,-0.8902,-0.89,-0.8898,-0.8973,-0.8977,-0.8981,0,0,0,0,0,0,0,0,0,0,0,0,0,-0.8703,-0.8707,-0.8882,-0.8883,-0.8884,-0.8953,-0.8954,-0.8955,-0.8905,-0.8902,-0.8899,-0.8897,-0.8971,-0.8976,-0.8981,0,0,0,0,0,0,0,0,0,0,0,0,0,-0.8779,-0.8708,-0.8882,-0.8867,-0.8867,-0.8953,-0.8954,-0.8956,-0.8906,-0.8902,-0.8899,-0.8896,-0.897,-0.8976,-0.8982,-0.9088,0,0,-0.9001,-0.9003,0,0,0,0,0,0,0,0,-0.8774,-0.8785,-0.8869,-0.8868,-0.8868,-0.8917,-0.8919,-0.9,-0.8906,-0.8891,-0.8898,-0.8894,-0.8957,-0.8964,-0.8985,-0.9091,-0.9094,-0.9001,-0.9005,-0.9008,-0.9009,0,0,0,0,0,0,0,-0.8769,-0.8782,-0.891,-0.887,-0.8869,-0.8857,-0.8864,-0.8934,-0.8942,-0.8892,-0.8888,-0.8897,-0.8956,-0.8979,-0.8986,-0.9095,-0.9001,-0.9006,-0.901,-0.9013,-0.9291,-0.9295,0,0,0,0,0,0,-0.8765,-0.8778,-0.8908,-0.8913,-0.8812,-0.8863,-0.8871,-0.8904,-0.8941,-0.8943,-0.89,-0.8895,-0.897,-0.8979,-0.8989,-0.9115,-0.9008,-0.9013,-0.9017,-0.9287,-0.9292,-0.9296,0,0,0,0,0,0,-0.8762,-0.8777,-0.8905,-0.8844,-0.886,-0.887,-0.8908,-0.8908,-0.893,-0.8947,-0.8949,-0.8922,-0.8968,-0.898,-0.9063,-0.9117,-0.9016,-0.9022,-0.9283,-0.9289,-0.9294,-0.9369,0,0,0,0,0,0,-0.8757,-0.8776,-0.8817,-0.8846,-0.8863,-0.8979,-0.8911,-0.8911,-0.8941,-0.8935,-0.8968,-0.8971,-0.8966,-0.9054,-0.9069,-0.9124,-0.9026,-0.9278,-0.9286,-0.9292,-0.9362,-0.9376,-0.9389,0,0,0,0,0,-0.875,-0.8836,-0.8819,-0.8835,-0.8914,-0.8982,-0.8992,-0.8985,-0.8945,-0.8986,-0.8997,-0.897,-0.9108,-0.9063,-0.908,-0.9137,-0.9275,-0.9283,-0.9292,-0.9356,-0.9373,-0.9388,0,0,0,0,0,0,-0.8814,-0.8839,-0.8821,-0.8918,-0.8948,-0.8973,-0.9025,-0.9004,-0.9046,-0.9039,-0.9028,-0.9036,-0.9123,-0.9138,-0.9087,-0.924,-0.9185,-0.9197,-0.9228,-0.9245,-0.9259,-0.9254,-0.9032,0,0,0,0,0,-0.8839,-0.8892,-0.8911,-0.8995,-0.9011,-0.9015,-0.9045,-0.9036,-0.9067,-0.908,-0.9096,-0.9128,-0.9178,-0.9212,-0.926,-0.9362,-0.9369,-0.9409,-0.9423,-0.9434,-0.9446,-0.9501,-0.9519,-0.9323,-0.9323,-0.9323,0,0,-0.8892,-0.8912,-0.8947,-0.9008,-0.903,-0.9086,-0.9026,-0.9088,-0.9129,-0.9089,-0.9169,-0.9182,-0.9216,-0.931,-0.9352,-0.9325,-0.95,-0.9445,-0.9453,-0.9459,-0.9511,-0.953,-0.9546,-0.9329,-0.9328,-0.9327,0,0,-0.9017,-0.9037,-0.9109,-0.9132,-0.9166,-0.9168,-0.9186,-0.9214,-0.9221,-0.93,-0.9271,-0.9319,-0.9407,-0.9432,-0.9457,-0.9589,-0.9566,-0.9604,-0.9677,-0.9731,-0.9746,-0.976,-0.9808,-0.9825,-0.9615,-0.9615,-0.9615,0,-0.908,-0.9162,-0.9149,-0.9213,-0.9241,-0.9205,-0.9278,-0.9301,-0.9349,-0.937,-0.9338,-0.9446,-0.9466,-0.9565,-0.9597,-0.9618,-0.9638,-0.9602,-0.9745,-0.9758,-0.9771,-0.9817,-0.9835,-0.962,-0.9619,-0.9619,-0.9618,0,-0.9236,-0.9294,-0.9348,-0.9394,-0.9428,-0.9496,-0.9494,-0.9529,-0.9516,-0.9522,-0.9602,-0.9625,-0.9677,-0.9699,-0.9688,-0.9796,-0.9778,-0.9746,-0.9691,-0.9794,-0.9837,-0.9855,-0.9626,-0.9625,-0.9623,-0.9622,0,0,-0.9407,-0.9444,-0.9464,-0.9485,-0.9518,-0.9563,-0.9628,-0.9677,-0.9708,-0.9741,-0.9797,-0.987,-0.984,-0.9867,-0.9858,-0.9905,-1.001,-0.9867,-0.9868,-0.9894,-1.0131,-1.0157,-1.0177,-0.9993,-0.9996,-0.9999,-1.0129,0,-0.9535,-0.965,-0.964,-0.9748,-0.9801,-0.9767,-0.9824,-0.9851,-0.9857,-0.9902,-0.9908,-0.9961,-0.9917,-0.9933,-0.9978,-0.9987,-1.0057,-0.9977,-1.0045,-1.0048,-1.004,-1.02,-1.0228,-1.0349,-1.0145,-1.0148,-1.015,0,-0.9701,-0.974,-0.9854,-0.9878,-0.99,-0.9952,-0.9995,-1.0039,-1.0068,-1.0069,-1.0099,-1.0081,-1.0147,-1.0088,-1.0179,-1.0125,-1.0151,-1.016,-1.0164,-1.0172,-1.0107,-1.0214,-1.0388,-1.0407,-1.0176,-1.0174,-1.0172,0,-0.9816,-0.9896,-0.9974,-0.9992,-1.0023,-1.006,-1.0074,-1.01,-1.013,-1.0167,-1.0187,-1.0232,-1.0257,-1.0292,-1.0287,-1.0245,-1.038,-1.0321,-1.0384,-1.0384,-1.0416,-1.0415,-1.0599,-1.043,-1.0429,-1.0429,-1.0429,0,-0.9962,-1.0034,-1.0026,-1.0075,-1.0153,-1.014,-1.0218,-1.0228,-1.0251,-1.0301,-1.0273,-1.032,-1.0309,-1.0356,-1.0352,-1.0429,-1.044,-1.0443,-1.0441,-1.0447,-1.0447,-1.0466,-1.0458,-1.0434,-1.0433,-1.0432,-1.0431,0,-1.0105,-1.0103,-1.0187,-1.0207,-1.0214,-1.0271,-1.0289,-1.0335,-1.0337,-1.0401,-1.0415,-1.0419,-1.0472,-1.0469,-1.053,-1.0528,-1.0622,-1.061,-1.0613,-1.0611,-1.0674,-1.0669,-1.0879,-1.0906,-1.0718,-1.072,-1.0721,0,-1.02,-1.0254,-1.028,-1.0311,-1.0327,-1.0378,-1.0407,-1.0395,-1.0428,-1.0464,-1.0505,-1.0556,-1.0596,-1.0683,-1.0692,-1.0738,-1.0728,-1.0798,-1.0735,-1.0738,-1.0731,-1.0729,-1.0734,-1.0812,-1.0814,-1.0815,-1.0817,0,-1.0368,-1.0364,-1.0408,-1.0451,-1.0487,-1.0521,-1.0551,-1.0578,-1.0569,-1.0607,-1.0661,-1.0692,-1.0753,-1.0804,-1.0848,-1.0862,-1.0839,-1.0836,-1.0853,-1.0861,-1.0861,-1.0863,-1.0649,-1.0832,-1.0831,-1.0829,-1.0829,-1.0828,-1.0491,-1.0537,-1.0563,-1.0612,-1.0633,-1.0662,-1.0706,-1.0713,-1.0758,-1.0806,-1.0796,-1.0857,-1.0883,-1.0939,-1.0957,-1.1005,-1.098,-1.1005,-1.1011,-1.1018,-1.1026,-1.0851,-1.1012,-1.1012,-1.1011,-1.1011,-1.1011,0,-1.066,-1.0673,-1.0719,-1.0762,-1.0801,-1.0773,-1.0805,-1.0839,-1.0893,-1.0919,-1.0958,-1.102,-1.1069,-1.108,-1.1126,-1.1162,-1.1152,-1.1175,-1.1174,-1.1177,-1.1045,-1.1026,-1.1182,-1.1182,-1.1182,-1.1182,-1.1182,-1.1182,-1.0752,-1.0829,-1.0827,-1.0914,-1.0927,-1.0986,-1.1007,-1.1033,-1.1053,-1.1123,-1.1163,-1.117,-1.119,-1.1237,-1.128,-1.1282,-1.1301,-1.1329,-1.1327,-1.1204,-1.1187,-1.117,-1.1153,-1.1333,-1.1333,-1.1455,-1.1456,-1.1457]},{"header":{"parameterUnit":"m.s-1","parameterCategory":1,"la1":30.2991,"la2":30.254,"lo1":-89.0895,"lo2":-89.0444,"dy":0.0017,"dx":0.0017,"nx":28,"ny":28,"refTime":"2025-01-07T03:00:00:Z","depth":0,"parameterNumber":3,"parameterNumberName":"V-component_of_WINDS"},"data":[0,0,0,0,0,0,0,0,0,0,0,0,0,0,0,0,0,0,0,0,0,0,0,0,0,0,0,0,0,0,0,0,0,0,0,0,0,0,0,0,0,0,0,0,0,0,0,0,0,0,0,0,0,0,0,0,0,0,-6.3614,-6.3615,0,-6.3733,-6.3734,-6.3735,-6.3653,-6.3649,-6.3645,-6.3642,-6.3759,-6.3766,-6.3772,0,0,0,0,0,0,0,0,0,0,0,0,0,-6.3309,-6.3315,-6.3614,-6.3615,-6.3617,-6.3732,-6.3734,-6.3736,-6.3653,-6.3649,-6.3644,-6.364,-6.3757,-6.3765,-6.3773,0,0,0,0,0,0,0,0,0,0,0,0,0,-6.3436,-6.3317,-6.3613,-6.359,-6.3589,-6.3732,-6.3734,-6.3736,-6.3654,-6.3649,-6.3643,-6.3638,-6.3754,-6.3764,-6.3774,-6.3946,0,0,-6.3804,-6.3808,0,0,0,0,0,0,0,0,-6.3429,-6.3447,-6.3592,-6.3591,-6.3591,-6.3672,-6.367,-6.3806,-6.3656,-6.3629,-6.3642,-6.3635,-6.3734,-6.3746,-6.378,-6.3952,-6.3957,-6.3805,-6.3811,-6.3815,-6.3818,0,0,0,0,0,0,0,-6.342,-6.3442,-6.3661,-6.3594,-6.3593,-6.3571,-6.3583,-6.3695,-6.3711,-6.3631,-6.3625,-6.3641,-6.3733,-6.3771,-6.3782,-6.3958,-6.3805,-6.3813,-6.3819,-6.3823,-6.4274,-6.428,0,0,0,0,0,0,-6.3414,-6.3435,-6.3657,-6.3664,-6.3495,-6.3581,-6.3594,-6.3652,-6.371,-6.3714,-6.3645,-6.3637,-6.3757,-6.3771,-6.3786,-6.399,-6.3815,-6.3824,-6.383,-6.4268,-6.4275,-6.4282,0,0,0,0,0,0,-6.3408,-6.3435,-6.3652,-6.3548,-6.3574,-6.3592,-6.3657,-6.3657,-6.3694,-6.3721,-6.3723,-6.3681,-6.3753,-6.3772,-6.3907,-6.3993,-6.3829,-6.3838,-6.4261,-6.427,-6.4278,-6.4401,0,0,0,0,0,0,-6.34,-6.3433,-6.35,-6.355,-6.358,-6.3773,-6.3663,-6.3663,-6.3712,-6.3702,-6.3755,-6.3759,-6.375,-6.3892,-6.3916,-6.4004,-6.3845,-6.4253,-6.4265,-6.4276,-6.4389,-6.4413,-6.4433,0,0,0,0,0,-6.3389,-6.353,-6.3504,-6.3532,-6.3665,-6.3778,-6.3795,-6.3783,-6.372,-6.3786,-6.3803,-6.3757,-6.398,-6.3907,-6.3933,-6.4025,-6.4248,-6.4262,-6.4275,-6.4379,-6.4408,-6.4432,0,0,0,0,0,0,-6.3489,-6.3536,-6.3508,-6.367,-6.3721,-6.3764,-6.3848,-6.3815,-6.3884,-6.3871,-6.3852,-6.3865,-6.4005,-6.4028,-6.3946,-6.4193,-6.4103,-6.4123,-6.4173,-6.4201,-6.4223,-6.4214,-6.3854,0,0,0,0,0,-6.353,-6.362,-6.3655,-6.3794,-6.3821,-6.383,-6.3879,-6.3866,-6.3917,-6.3938,-6.3964,-6.4015,-6.4095,-6.4149,-6.4226,-6.4391,-6.44,-6.4467,-6.4489,-6.4507,-6.4524,-6.4611,-6.4641,-6.4326,-6.4326,-6.4326,0,0,-6.3615,-6.3652,-6.3709,-6.3815,-6.3853,-6.3944,-6.3849,-6.395,-6.4017,-6.3953,-6.4082,-6.4103,-6.4157,-6.4308,-6.4375,-6.4331,-6.4613,-6.4524,-6.4538,-6.4546,-6.4628,-6.4658,-6.4684,-6.4336,-6.4334,-6.4333,0,0,-6.3817,-6.3855,-6.3974,-6.4013,-6.4072,-6.4077,-6.4105,-6.4154,-6.4166,-6.4295,-6.4247,-6.4325,-6.4466,-6.4506,-6.4545,-6.476,-6.472,-6.4785,-6.49,-6.4986,-6.501,-6.5032,-6.5107,-6.5135,-6.4802,-6.4802,-6.4802,0,-6.3915,-6.4053,-6.4038,-6.4143,-6.419,-6.4136,-6.4255,-6.4294,-6.4374,-6.4406,-6.4356,-6.453,-6.4563,-6.4721,-6.4773,-6.4807,-6.4837,-6.4779,-6.5008,-6.503,-6.505,-6.5122,-6.515,-6.481,-6.4809,-6.4808,-6.4807,0,-6.417,-6.4266,-6.4354,-6.4434,-6.4491,-6.4602,-6.4602,-6.4661,-6.4641,-6.4651,-6.4781,-6.4819,-6.4901,-6.4937,-6.4919,-6.5092,-6.5063,-6.5011,-6.492,-6.5088,-6.5155,-6.5182,-6.482,-6.4818,-6.4816,-6.4814,0,0,-6.444,-6.4509,-6.4542,-6.4576,-6.4636,-6.4709,-6.4816,-6.4897,-6.4947,-6.5003,-6.5092,-6.5211,-6.5162,-6.5206,-6.5192,-6.5267,-6.5433,-6.5205,-6.5206,-6.5245,-6.5623,-6.5662,-6.5694,-6.5406,-6.5411,-6.5415,-6.5618,0,-6.4644,-6.4834,-6.4823,-6.5,-6.5087,-6.5036,-6.5129,-6.5174,-6.5185,-6.5259,-6.527,-6.5355,-6.5285,-6.5311,-6.5383,-6.5397,-6.5508,-6.5382,-6.5486,-6.549,-6.5474,-6.5729,-6.5771,-6.5961,-6.5644,-6.5649,-6.5652,0,-6.4909,-6.4975,-6.5161,-6.5206,-6.5242,-6.5327,-6.5399,-6.5471,-6.552,-6.5522,-6.5571,-6.5543,-6.5649,-6.5556,-6.57,-6.5615,-6.5656,-6.5669,-6.5676,-6.5686,-6.5581,-6.5745,-6.6022,-6.605,-6.5693,-6.569,-6.5687,0,-6.5086,-6.5222,-6.535,-6.5381,-6.5437,-6.5497,-6.5522,-6.5566,-6.5615,-6.5677,-6.5708,-6.5781,-6.5822,-6.5878,-6.587,-6.5803,-6.6016,-6.5923,-6.602,-6.602,-6.6067,-6.6065,-6.6355,-6.6095,-6.6094,-6.6094,-6.6093,0,-6.5316,-6.5432,-6.543,-6.5509,-6.5636,-6.562,-6.5746,-6.5764,-6.5803,-6.5883,-6.5843,-6.5918,-6.5903,-6.5978,-6.5972,-6.6091,-6.611,-6.6113,-6.611,-6.6117,-6.6117,-6.6144,-6.613,-6.6101,-6.61,-6.6098,-6.6097,0,-6.5536,-6.554,-6.5676,-6.5717,-6.573,-6.5822,-6.5856,-6.5929,-6.5936,-6.6037,-6.606,-6.607,-6.6155,-6.6153,-6.625,-6.6246,-6.6392,-6.6374,-6.6376,-6.6372,-6.6469,-6.646,-6.6787,-6.6828,-6.6542,-6.6545,-6.6547,0,-6.5683,-6.577,-6.5821,-6.5872,-6.5901,-6.5984,-6.6034,-6.6021,-6.6073,-6.6135,-6.62,-6.6282,-6.6347,-6.6485,-6.65,-6.6573,-6.6556,-6.6665,-6.6566,-6.657,-6.6556,-6.6551,-6.6559,-6.6685,-6.6688,-6.669,-6.6693,0,-6.5942,-6.5939,-6.6012,-6.6087,-6.6147,-6.6204,-6.6256,-6.63,-6.6292,-6.6353,-6.644,-6.649,-6.6589,-6.667,-6.6739,-6.6763,-6.6727,-6.6723,-6.6749,-6.6757,-6.6755,-6.6756,-6.6429,-6.6716,-6.6714,-6.6712,-6.6711,-6.671,-6.6129,-6.6204,-6.6251,-6.6333,-6.6371,-6.6421,-6.6491,-6.6506,-6.658,-6.666,-6.6646,-6.6744,-6.6787,-6.6878,-6.6908,-6.6982,-6.6943,-6.6981,-6.6991,-6.7,-6.7011,-6.6743,-6.6994,-6.6994,-6.6993,-6.6992,-6.6992,0,-6.6385,-6.6412,-6.6489,-6.6563,-6.6628,-6.6588,-6.6643,-6.6699,-6.6786,-6.683,-6.6895,-6.6994,-6.7071,-6.7092,-6.7166,-6.7221,-6.7206,-6.7241,-6.7237,-6.7242,-6.7042,-6.7012,-6.7252,-6.7252,-6.7252,-6.7252,-6.7252,-6.7252,-6.6527,-6.6651,-6.6653,-6.6794,-6.6819,-6.6915,-6.695,-6.6994,-6.703,-6.7143,-6.7207,-6.722,-6.7254,-6.733,-6.7399,-6.7402,-6.7431,-6.7473,-6.747,-6.7283,-6.7257,-6.7232,-6.7203,-6.748,-6.748,-6.7664,-6.7666,-6.7667]}]]